• In Hungary
  • List of Countries
  • For 7 days
  • Water Temperature
  • Satellite Maps
  • Weather Map
  • News
  • Weather Widgets
  • user-avatar
    Login

    Hourly Weather Kyrdzhali

    Today, 18 October, Thursday

    Time Temperature Precipitation Wind Pressure Humidity
    00:00 +14°C° 0 mm 2 mps 729 mmHg 75%
    01:00 +14°C° 0 mm 2 mps 729 mmHg 76%
    02:00 +14°C° 0 mm 1 mps 728 mmHg 77%
    03:00 +13°C° 0 mm 1 mps 728 mmHg 77%
    04:00 +13°C° 0 mm 1 mps 728 mmHg 77%
    05:00 +13°C° 0 mm 2 mps 728 mmHg 77%
    06:00 +14°C° 0 mm 1 mps 728 mmHg 74%
    07:00 +15°C° 0 mm 1 mps 728 mmHg 71%
    08:00 +16°C° 0 mm 1 mps 728 mmHg 67%
    09:00 +18°C° 0 mm 1 mps 728 mmHg 62%
    10:00 +19°C° 0 mm 2 mps 728 mmHg 57%
    11:00 +20°C° 0 mm 2 mps 728 mmHg 52%
    12:00 +21°C° 0 mm 2 mps 728 mmHg 50%
    13:00 +21°C° 0 mm 2 mps 728 mmHg 49%
    14:00 +23°C° 0 mm 2 mps 728 mmHg 48%
    15:00 +21°C° 0 mm 2 mps 728 mmHg 51%
    16:00 +20°C° 0 mm 2 mps 727 mmHg 54%
    17:00 +21°C° 0 mm 1 mps 727 mmHg 58%
    18:00 +20°C° 0 mm 1 mps 727 mmHg 62%
    19:00 +18°C° 0 mm 1 mps 727 mmHg 67%
    20:00 +16°C° 0 mm 1 mps 727 mmHg 71%
    21:00 +16°C° 0 mm 1 mps 727 mmHg 73%
    22:00 +15°C° 0 mm 1 mps 727 mmHg 75%
    23:00 +15°C° 0 mm 1 mps 728 mmHg 77%

    Tomorrow, 19 October, Friday

    Time Temperature Precipitation Wind Pressure Humidity
    00:00 +15°C° 0 mm 1 mps 727 mmHg 79%
    01:00 +14°C° 0 mm 1 mps 727 mmHg 81%
    02:00 +14°C° 0 mm 1 mps 727 mmHg 83%
    03:00 +14°C° 0 mm 1 mps 727 mmHg 84%
    04:00 +14°C° 0 mm 1 mps 727 mmHg 85%
    05:00 +13°C° 0 mm 1 mps 727 mmHg 86%
    06:00 +14°C° 0 mm 1 mps 727 mmHg 83%
    07:00 +15°C° 0 mm 1 mps 728 mmHg 80%
    08:00 +15°C° 0 mm 1 mps 728 mmHg 77%
    09:00 +18°C° 0 mm 1 mps 728 mmHg 70%
    10:00 +20°C° 0 mm 1 mps 728 mmHg 62%
    11:00 +21°C° 0 mm 2 mps 728 mmHg 55%
    12:00 +21°C° 0 mm 2 mps 728 mmHg 53%
    13:00 +23°C° 0 mm 2 mps 728 mmHg 51%
    14:00 +23°C° 0 mm 2 mps 728 mmHg 49%
    15:00 +22°C° 0 mm 1 mps 728 mmHg 52%
    16:00 +22°C° 0 mm 1 mps 728 mmHg 55%
    17:00 +21°C° 0 mm 1 mps 727 mmHg 58%
    18:00 +20°C° 0 mm 1 mps 728 mmHg 61%
    19:00 +19°C° 0 mm 1 mps 728 mmHg 64%
    20:00 +16°C° 0 mm 0 mps 728 mmHg 67%
    21:00 +18°C° 0 mm 1 mps 728 mmHg 68%
    22:00 +18°C° 0 mm 1 mps 728 mmHg 69%
    23:00 +18°C° 0 mm 1 mps 729 mmHg 70%

    Day after tomorrow, 20 October, Saturday

    Time Temperature Precipitation Wind Pressure Humidity
    00:00 +16°C° 0 mm 1 mps 729 mmHg 71%
    01:00 +16°C° 0 mm 2 mps 728 mmHg 73%
    02:00 +15°C° 0 mm 2 mps 728 mmHg 75%
    03:00 +15°C° 0 mm 2 mps 728 mmHg 77%
    04:00 +14°C° 0 mm 2 mps 728 mmHg 79%
    05:00 +14°C° 0 mm 2 mps 728 mmHg 80%
    06:00 +15°C° 0 mm 2 mps 728 mmHg 78%
    07:00 +15°C° 0 mm 2 mps 729 mmHg 75%
    08:00 +16°C° 0 mm 2 mps 729 mmHg 73%
    09:00 +17°C° 0.1 mm 2 mps 729 mmHg 66%
    10:00 +18°C° 0.1 mm 3 mps 730 mmHg 59%
    11:00 +20°C° 0.1 mm 3 mps 730 mmHg 52%
    12:00 +20°C° 0.2 mm 3 mps 730 mmHg 51%
    13:00 +20°C° 0.2 mm 3 mps 729 mmHg 51%
    14:00 +20°C° 0.2 mm 3 mps 729 mmHg 50%
    15:00 +19°C° 0.1 mm 3 mps 729 mmHg 52%
    16:00 +19°C° 0.1 mm 3 mps 729 mmHg 55%
    17:00 +18°C° 0.1 mm 3 mps 729 mmHg 57%
    18:00 +17°C° 0.1 mm 3 mps 729 mmHg 61%
    19:00 +16°C° 0.1 mm 3 mps 729 mmHg 65%
    20:00 +14°C° 0.1 mm 3 mps 730 mmHg 69%
    21:00 +14°C° 0 mm 3 mps 730 mmHg 69%
    22:00 +15°C° 0 mm 2 mps 730 mmHg 70%
    23:00 +14°C° 0 mm 2 mps 730 mmHg 70%

    21 October, Sunday

    Time Temperature Precipitation Wind Pressure Humidity
    00:00 +14°C° 0 mm 2 mps 730 mmHg 72%
    01:00 +13°C° 0 mm 2 mps 730 mmHg 73%
    02:00 +12°C° 0 mm 3 mps 730 mmHg 74%
    03:00 +12°C° 0 mm 3 mps 730 mmHg 75%
    04:00 +11°C° 0 mm 3 mps 730 mmHg 77%
    05:00 +11°C° 0 mm 3 mps 729 mmHg 78%
    06:00 +12°C° 0 mm 3 mps 730 mmHg 75%
    07:00 +12°C° 0 mm 3 mps 730 mmHg 73%
    08:00 +13°C° 0 mm 3 mps 730 mmHg 70%
    09:00 +14°C° 0 mm 4 mps 730 mmHg 64%
    10:00 +17°C° 0 mm 4 mps 730 mmHg 58%
    11:00 +18°C° 0 mm 4 mps 730 mmHg 52%
    12:00 +19°C° 0 mm 4 mps 730 mmHg 51%
    13:00 +19°C° 0 mm 4 mps 729 mmHg 50%
    14:00 +19°C° 0 mm 3 mps 729 mmHg 48%
    15:00 +19°C° 0 mm 3 mps 728 mmHg 51%
    16:00 +18°C° 0 mm 2 mps 728 mmHg 54%
    17:00 +18°C° 0 mm 1 mps 728 mmHg 57%
    18:00 +16°C° 0 mm 1 mps 727 mmHg 60%
    19:00 +15°C° 0 mm 1 mps 727 mmHg 64%
    20:00 +13°C° 0 mm 0 mps 727 mmHg 68%
    21:00 +14°C° 0.7 mm 1 mps 727 mmHg 72%
    22:00 +14°C° 0.7 mm 1 mps 727 mmHg 75%
    23:00 +13°C° 0.7 mm 1 mps 727 mmHg 78%

    22 October, Monday

    Time Temperature Precipitation Wind Pressure Humidity
    00:00 +13°C° 2.5 mm 2 mps 726 mmHg 82%
    01:00 +13°C° 2.5 mm 2 mps 726 mmHg 85%
    02:00 +12°C° 2.5 mm 2 mps 726 mmHg 88%
    03:00 +12°C° 3.1 mm 2 mps 725 mmHg 88%
    04:00 +10°C° 3.1 mm 2 mps 725 mmHg 88%
    05:00 +10°C° 3.1 mm 2 mps 725 mmHg 88%
    06:00 +10°C° 1.3 mm 3 mps 725 mmHg 87%
    07:00 +9°C° 1.3 mm 3 mps 725 mmHg 86%
    08:00 +9°C° 1.3 mm 3 mps 725 mmHg 85%
    09:00 +9°C° 1.7 mm 3 mps 725 mmHg 83%
    10:00 +9°C° 1.7 mm 3 mps 725 mmHg 82%
    11:00 +7°C° 1.7 mm 4 mps 725 mmHg 81%
    12:00 +8°C° 1.1 mm 4 mps 725 mmHg 80%
    13:00 +8°C° 1.1 mm 4 mps 725 mmHg 79%
    14:00 +8°C° 1.1 mm 4 mps 725 mmHg 78%
    15:00 +8°C° 0.2 mm 4 mps 725 mmHg 79%
    16:00 +7°C° 0.2 mm 4 mps 725 mmHg 80%
    17:00 +7°C° 0.2 mm 5 mps 725 mmHg 81%
    18:00 +7°C° 0.4 mm 5 mps 725 mmHg 82%
    19:00 +7°C° 0.4 mm 5 mps 725 mmHg 83%
    20:00 +6°C° 0.4 mm 5 mps 725 mmHg 83%
    21:00 +6°C° 0.7 mm 5 mps 725 mmHg 84%
    22:00 +6°C° 0.7 mm 5 mps 725 mmHg 85%
    23:00 +6°C° 0.7 mm 5 mps 725 mmHg 86%

    23 October, Tuesday

    Time Temperature Precipitation Wind Pressure Humidity
    00:00 +5°C° 0.6 mm 6 mps 725 mmHg 85%
    01:00 +5°C° 0.6 mm 6 mps 725 mmHg 85%
    02:00 +5°C° 0.6 mm 6 mps 725 mmHg 84%
    03:00 +5°C° 0.5 mm 6 mps 725 mmHg 85%
    04:00 +5°C° 0.5 mm 6 mps 725 mmHg 85%
    05:00 +5°C° 0.5 mm 6 mps 724 mmHg 85%
    06:00 +5°C° 0.2 mm 6 mps 724 mmHg 84%
    07:00 +7°C° 0.2 mm 6 mps 724 mmHg 83%
    08:00 +7°C° 0.2 mm 6 mps 725 mmHg 83%
    09:00 +7°C° 0.2 mm 6 mps 724 mmHg 82%
    10:00 +8°C° 0.2 mm 6 mps 724 mmHg 80%
    11:00 +8°C° 0.2 mm 6 mps 724 mmHg 79%
    12:00 +9°C° 0.1 mm 6 mps 724 mmHg 77%
    13:00 +9°C° 0.1 mm 5 mps 724 mmHg 76%
    14:00 +10°C° 0.1 mm 5 mps 723 mmHg 74%
    15:00 +10°C° 0.1 mm 5 mps 723 mmHg 75%
    16:00 +11°C° 0.1 mm 4 mps 723 mmHg 76%
    17:00 +10°C° 0.1 mm 4 mps 723 mmHg 77%
    18:00 +10°C° 0.1 mm 3 mps 723 mmHg 79%
    19:00 +9°C° 0.1 mm 3 mps 723 mmHg 81%
    20:00 +9°C° 0.1 mm 2 mps 723 mmHg 83%
    21:00 +9°C° 0 mm 2 mps 722 mmHg 83%
    22:00 +8°C° 0 mm 2 mps 722 mmHg 83%
    23:00 +8°C° 0 mm 2 mps 722 mmHg 83%
    Show more